Change the Weather History Date:

Tuesday, March 18, 2014

  Actual Average (KLWD) Record (KLWD)
Temperature  
Mean Temperature 42 °F 41 °F  
Max Temperature 52 °F 51 °F 78 °F (2012)
Min Temperature 33 °F 31 °F 7 °F (1965)
Degree Days  
Heating Degree Days 22 24  
Month to date heating degree days 500  
Since 1 July heating degree days 5217  
Cooling Degree Days 0 0  
Month to date cooling degree days 0  
Year to date cooling degree days 0  
Moisture  
Dew Point 30 °F    
Average Humidity 63    
Maximum Humidity 81    
Minimum Humidity 50    
Precipitation  
Precipitation 0.00 in 0.08 in 1.25 in (1963)
Month to date precipitation 1.16  
Sea Level Pressure  
Sea Level Pressure 29.55 in    
Wind  
Wind Speed 11 mph (ESE)    
Max Wind Speed 17 mph    
Max Gust Speed 24 mph    
Visibility 10 miles    
Events Rain    
T = Trace of Precipitation, MM = Missing Value Source: NWS Daily Summary

Daily Weather History Graph

Daily Weather History Graph

Search for Another Location

Airport or City:

Trip Planner

Search our weather history database for the weather conditions in past years. The results will help you decide how hot, cold, wet, or windy it might be!

Date:

Astronomy

Mar. 18, 2014 Rise Set
Actual Time 7:21 AM CDT 7:24 PM CDT
Civil Twilight 6:54 AM CDT 7:52 PM CDT
Nautical Twilight 6:21 AM CDT 8:24 PM CDT
Astronomical Twilight 5:49 AM CDT 8:56 PM CDT
Moon 9:44 PM CDT (3/18) 8:10 AM CDT (3/18)
Length of Visible Light 12h 58m
Length of Day
12h 03m
Waning Gibbous, 96% of the Moon is Illuminated
Mar 18
Waning Gibbous
Mar 23
Last Quarter
Mar 30
New
Apr 7
First Quarter
Apr 15
Full

Hourly Weather History & Observations

Time (CDT) Temp. Windchill Dew Point Humidity Pressure Visibility Wind Dir Wind Speed Gust Speed Precip Events Conditions
12:15 AM 37.8 °F 29.4 °F 22.6 °F 54% 29.59 in 10.0 mi South 13.8 mph - N/A   Clear
12:35 AM 37.4 °F 29.3 °F 22.6 °F 55% 29.59 in 10.0 mi SSE 12.7 mph - N/A   Clear
12:55 AM 37.2 °F 27.9 °F 22.6 °F 56% 29.59 in 10.0 mi South 16.1 mph - N/A   Clear
1:15 AM 37.0 °F 28.5 °F 22.3 °F 55% 29.59 in 10.0 mi South 13.8 mph - N/A   Clear
1:35 AM 37.4 °F 28.2 °F 22.1 °F 54% 29.58 in 10.0 mi SSE 16.1 mph 24.2 mph N/A   Clear
1:55 AM 37.2 °F 28.3 °F 21.6 °F 53% 29.58 in 10.0 mi SSE 15.0 mph - N/A   Clear
2:15 AM 36.5 °F 27.8 °F 21.4 °F 54% 29.58 in 10.0 mi SSE 13.8 mph - N/A   Clear
2:35 AM 36.1 °F 26.9 °F 21.2 °F 55% 29.58 in 10.0 mi SSE 15.0 mph - N/A   Clear
2:55 AM 36.5 °F 27.8 °F 21.2 °F 54% 29.58 in 10.0 mi SSE 13.8 mph - N/A   Clear
3:15 AM 35.1 °F 27.4 °F 21.6 °F 58% 29.57 in 10.0 mi SSE 10.4 mph - N/A   Clear
3:35 AM 35.1 °F 26.9 °F 21.9 °F 59% 29.57 in 10.0 mi SSE 11.5 mph - N/A   Clear
3:55 AM 34.9 °F 27.1 °F 22.1 °F 60% 29.56 in 10.0 mi SSE 10.4 mph - N/A   Clear
4:15 AM 34.2 °F 25.7 °F 23.0 °F 64% 29.54 in 10.0 mi SE 11.5 mph - N/A   Clear
4:35 AM 34.0 °F 25.5 °F 23.0 °F 64% 29.54 in 10.0 mi SE 11.5 mph - N/A   Clear
4:55 AM 33.8 °F 27.0 °F 23.4 °F 66% 29.54 in 10.0 mi SSE 8.1 mph - N/A   Clear
5:15 AM 33.4 °F 26.6 °F 23.5 °F 67% 29.54 in 10.0 mi SSE 8.1 mph - N/A   Clear
5:35 AM 33.8 °F 25.3 °F 23.9 °F 67% 29.55 in 10.0 mi SSE 11.5 mph - N/A   Clear
5:55 AM 34.2 °F 26.2 °F 24.3 °F 67% 29.54 in 10.0 mi SSE 10.4 mph - N/A   Clear
6:15 AM 33.8 °F 25.8 °F 24.8 °F 70% 29.54 in 10.0 mi SE 10.4 mph - N/A   Clear
6:35 AM 33.6 °F 26.2 °F 25.2 °F 71% 29.54 in 10.0 mi SE 9.2 mph - N/A   Clear
6:55 AM 34.2 °F 26.2 °F 26.1 °F 72% 29.53 in 10.0 mi SE 10.4 mph - N/A   Clear
7:15 AM 35.6 °F 27.5 °F 26.6 °F 70% 29.53 in 10.0 mi SSE 11.5 mph - N/A   Clear
7:35 AM 36.9 °F 27.8 °F 27.3 °F 68% 29.52 in 10.0 mi SE 15.0 mph 18.4 mph N/A   Clear
7:55 AM 37.0 °F 29.3 °F 27.9 °F 69% 29.54 in 10.0 mi SSE 11.5 mph - N/A   Clear
8:15 AM 37.4 °F 29.3 °F 28.4 °F 70% 29.53 in 10.0 mi SE 12.7 mph - N/A   Clear
8:35 AM 37.8 °F 30.2 °F 29.1 °F 71% 29.54 in 10.0 mi SE 11.5 mph - N/A   Clear
8:55 AM 38.3 °F 30.9 °F 29.1 °F 70% 29.54 in 10.0 mi SE 11.5 mph 16.1 mph N/A   Clear
9:15 AM 38.3 °F 31.4 °F 29.3 °F 70% 29.55 in 10.0 mi SE 10.4 mph - N/A   Clear
9:35 AM 39.2 °F 32.0 °F 29.7 °F 69% 29.56 in 10.0 mi SE 11.5 mph - N/A   Clear
9:55 AM 39.2 °F 32.0 °F 29.8 °F 69% 29.56 in 10.0 mi ESE 11.5 mph - N/A   Clear
10:15 AM 40.1 °F 32.7 °F 30.4 °F 68% 29.56 in 10.0 mi ESE 12.7 mph 17.3 mph N/A   Clear
10:35 AM 40.6 °F 35.4 °F 30.9 °F 68% 29.57 in 10.0 mi ESE 8.1 mph - N/A   Clear
10:55 AM 42.6 °F 35.6 °F 31.3 °F 64% 29.56 in 10.0 mi ESE 13.8 mph - N/A   Clear
11:15 AM 43.7 °F 38.1 °F 31.8 °F 63% 29.56 in 10.0 mi ESE 10.4 mph - N/A   Clear
11:35 AM 44.4 °F 38.6 °F 32.0 °F 62% 29.55 in 10.0 mi ESE 11.5 mph - N/A   Clear
11:55 AM 44.2 °F 38.8 °F 32.0 °F 62% 29.54 in 10.0 mi ESE 10.4 mph - N/A   Clear
12:15 PM 45.7 °F 39.8 °F 32.7 °F 61% 29.54 in 10.0 mi ESE 12.7 mph - N/A   Clear
12:35 PM 45.9 °F 39.4 °F 32.4 °F 59% 29.53 in 10.0 mi ESE 15.0 mph - N/A   Clear
12:55 PM 46.4 °F 39.8 °F 32.7 °F 59% 29.53 in 10.0 mi ESE 16.1 mph - N/A   Clear
1:15 PM 46.8 °F - 32.5 °F 58% 29.52 in 10.0 mi ESE 16.1 mph 20.7 mph N/A   Clear
1:35 PM 48.6 °F - 33.4 °F 56% 29.51 in 10.0 mi ESE 15.0 mph 19.6 mph N/A   Clear
1:55 PM 51.3 °F - 33.3 °F 50% 29.51 in 10.0 mi SSE 17.3 mph 23.0 mph N/A   Clear
2:15 PM 52.2 °F - 34.5 °F 51% 29.51 in 10.0 mi SE 16.1 mph 21.9 mph N/A   Scattered Clouds
2:35 PM 50.9 °F - 33.8 °F 52% 29.50 in 10.0 mi SSE 11.5 mph 18.4 mph N/A   Overcast
2:55 PM 50.4 °F - 33.8 °F 53% 29.50 in 10.0 mi SE 12.7 mph 18.4 mph N/A   Overcast
3:15 PM 49.8 °F - 34.5 °F 56% 29.50 in 10.0 mi SE 10.4 mph - N/A   Overcast
3:35 PM 50.2 °F - 34.5 °F 55% 29.50 in 10.0 mi SE 8.1 mph - N/A   Overcast
3:55 PM 50.5 °F - 34.2 °F 53% 29.51 in 7.0 mi ESE 5.8 mph - N/A   Overcast
4:15 PM 51.1 °F - 34.3 °F 53% 29.51 in 10.0 mi ESE 4.6 mph - N/A   Overcast
4:35 PM 51.6 °F - 34.3 °F 52% 29.51 in 10.0 mi ESE 3.5 mph - N/A   Overcast
4:55 PM 51.8 °F - 34.7 °F 52% 29.51 in 10.0 mi East 3.5 mph - N/A   Overcast
5:15 PM 50.5 °F - 34.9 °F 55% 29.50 in 10.0 mi ENE 4.6 mph - N/A   Overcast
5:35 PM 48.7 °F - 36.1 °F 62% 29.51 in 10.0 mi Calm Calm - N/A   Overcast
5:55 PM 48.9 °F - 35.2 °F 59% 29.51 in 10.0 mi North 4.6 mph - N/A   Overcast
6:15 PM 47.8 °F - 34.9 °F 61% 29.51 in 10.0 mi North 5.8 mph - N/A   Overcast
6:35 PM 47.7 °F - 35.1 °F 62% 29.52 in 10.0 mi North 4.6 mph - N/A   Overcast
6:55 PM 47.5 °F - 34.9 °F 62% 29.52 in 10.0 mi North 5.8 mph - N/A   Overcast
7:15 PM 46.9 °F - 34.7 °F 62% 29.53 in 10.0 mi North 5.8 mph - N/A   Overcast
7:35 PM 46.8 °F - 34.7 °F 63% 29.53 in 10.0 mi North 5.8 mph - N/A   Overcast
7:55 PM 45.9 °F 42.9 °F 34.7 °F 65% 29.54 in 10.0 mi North 5.8 mph - N/A   Overcast
8:15 PM 45.5 °F 43.2 °F 35.1 °F 67% 29.56 in 10.0 mi NNW 4.6 mph - N/A Rain Light Rain
8:35 PM 44.2 °F 40.3 °F 36.1 °F 73% 29.57 in 10.0 mi NNW 6.9 mph - N/A   Overcast
8:55 PM 44.6 °F 40.2 °F 35.6 °F 71% 29.57 in 10.0 mi North 8.1 mph - N/A   Overcast
9:15 PM 43.9 °F 39.9 °F 35.6 °F 73% 29.57 in 10.0 mi NNW 6.9 mph - N/A   Overcast
9:35 PM 43.7 °F 38.6 °F 36.0 °F 74% 29.58 in 10.0 mi North 9.2 mph - N/A   Overcast
9:55 PM 43.3 °F 38.1 °F 36.1 °F 76% 29.58 in 10.0 mi North 9.2 mph - N/A   Overcast
10:15 PM 43.2 °F 38.4 °F 36.3 °F 77% 29.58 in 10.0 mi North 8.1 mph - N/A   Overcast
10:35 PM 43.2 °F 37.9 °F 36.5 °F 77% 29.59 in 10.0 mi North 9.2 mph - N/A   Overcast
10:55 PM 42.8 °F 38.0 °F 36.5 °F 78% 29.59 in 10.0 mi NNW 8.1 mph - N/A   Overcast
11:15 PM 42.6 °F 38.4 °F 36.7 °F 79% 29.60 in 10.0 mi NNW 6.9 mph - N/A   Overcast
11:35 PM 42.1 °F 38.4 °F 36.5 °F 81% 29.60 in 10.0 mi NNW 5.8 mph - N/A   Overcast
11:55 PM 42.4 °F 36.5 °F 36.9 °F 81% 29.61 in 10.0 mi NW 10.4 mph - N/A   Overcast